Location: *
(37.5724°S, 58.0067°E)
Time: 20:22:37
(UTC+00:00)

Daily predictions for brighter satellites

Satellite Brightness Start Highest point End
(mag) Time Altitude Azimuth Time Altitude Azimuth Time Altitude Azimuth
Cosmos 2227 Rocket 3.2 13:44:14 10° NNE 13:48:46 25° ENE 13:53:19 10° SE
ARIANE 5 R/B 2.8 13:43:57 10° SSE 13:48:53 49° E 13:53:46 10° N
Thor Agena Rocket 4.5 13:47:22 10° S 13:52:33 54° WSW 13:57:38 10° NNW
IRAS Rocket 4.2 13:49:55 10° SSE 13:55:30 83° ENE 14:01:00 10° NNW
COSMO-SKYMED 1 4.1 13:53:28 10° N 13:57:33 41° W 14:01:42 10° SSW
NOSS 0 Rocket 4.0 13:51:47 10° SSW 13:57:52 55° ESE 14:03:54 10° NE
Cosmos 1452 Rocket 4.0 13:52:38 10° SSW 13:57:56 68° WNW 14:03:10 10° N
Cosmos 614 Rocket 4.5 14:00:56 10° NNW 14:05:58 62° WSW 14:11:03 10° SSE
USA 267 4.1 14:03:27 10° E 14:09:03 31° SSE 14:14:40 10° SSW
USA 59 Rocket 3.8 14:04:32 10° WSW 14:11:38 21° SSW 14:18:55 10° SSE
USA 308 1.7 14:10:54 10° N 14:11:53 22° NE 14:11:53 22° NE
Genesis I 2.2 14:09:52 10° SSW 14:12:33 56° ESE 14:15:11 10° NE
Cosmos 2322 4.2 14:08:02 10° SSW 14:13:44 65° WNW 14:19:21 10° N
CZ-2D R/B 3.9 14:13:00 10° SSE 14:16:51 38° E 14:20:43 10° NNE
ACS3 Solar Sail 1.9 14:10:58 10° SSE 14:17:19 89° W 14:23:29 10° NNW
Cosmos 1992 Rocket 4.1 14:19:21 10° S 14:24:29 51° ESE 14:29:33 10° NE
Nadezhda 4 Rocket 4.0 14:20:14 10° N 14:26:23 60° E 14:32:39 10° SSE
SMAP 3.0 14:22:25 10° SSE 14:27:10 81° ENE 14:31:51 10° N
AQUARIUS 4.3 14:24:23 10° SSE 14:28:46 51° E 14:33:05 10° N
USA 81 4.0 14:24:29 10° N 14:29:43 68° E 14:35:02 10° S
Cosmos 2237 Rocket 2.3 14:25:29 10° SSW 14:31:09 57° ESE 14:36:43 10° NE
IGS 5A 3.3 14:29:00 10° SSE 14:33:06 87° ENE 14:37:08 10° NNW
CORIOLIS 4.1 14:27:46 10° SSE 14:33:12 87° ENE 14:38:34 10° NNW
Cosmos 1271 Rocket 3.5 14:34:41 10° NNW 14:38:14 51° W 14:41:51 10° S
COSMOS 2428 3.8 14:33:20 10° SW 14:38:48 47° WNW 14:44:13 10° N
Cosmos 1300 Rocket 4.2 14:35:56 10° SSW 14:40:21 59° W 14:44:42 10° N
SL-16 R/B 3.3 14:46:49 10° S 14:51:17 25° SE 14:51:17 25° SE
Cosmos 2219 3.7 14:46:58 10° N 14:52:11 38° ENE 14:53:59 30° ESE
BREEZE-M DEB (TANK) 4.3 14:39:42 10° WSW 14:52:32 53° S 14:54:43 31° ESE
COSMOS 2455 3.9 14:50:31 10° S 14:55:19 24° SE 14:55:19 24° SE
EXPRESS MD2 4.3 14:53:05 10° NW 14:57:32 67° NE 15:01:38 28° ESE
Cosmos 1378 Rocket 3.4 14:53:50 10° N 14:58:13 67° E 15:02:38 10° SSE
Cosmos 407 Rocket 4.3 14:54:15 10° NNE 14:57:40 29° NE 14:57:40 29° NE
NOSS 3-2 (A) 4.0 14:56:12 10° SW 15:01:55 50° WNW 15:06:46 10° N
SL-19 R/B 4.4 14:58:48 10° S 15:02:44 77° WSW 15:06:49 10° NNW
Landsat 7 3.6 14:58:16 10° SSE 15:03:01 76° ENE 15:07:41 10° N
Cosmos 1140 Rocket 3.3 15:03:25 10° N 15:08:31 77° ENE 15:11:43 24° SSE
SL-08 R/B 3.6 15:04:48 10° N 15:09:38 69° WNW 15:14:27 10° SSW
ISS -2.5 15:06:39 10° SW 15:08:59 34° SSW 15:08:59 34° SSW
Cosmos 2297 Rocket 4.0 15:05:10 10° WNW 15:10:04 30° WSW 15:15:01 10° S
Cosmos 2026 Rocket 3.8 15:04:09 10° N 15:10:20 72° E 15:16:31 10° S
DELTA 2 R/B (1) 3.6 15:06:03 10° W 15:11:38 71° S 15:13:05 49° ESE
Cosmos 1627 Rocket 4.4 15:10:14 10° N 15:16:30 78° E 15:22:46 10° S
BlueWalker 3 3.9 15:14:33 10° WSW 15:17:40 25° NW 15:19:24 18° N
Cosmos 2263 Rocket 2.1 15:12:55 10° NNW 15:18:33 71° ENE 15:20:25 43° SE
Cosmos 1092 Rocket 3.9 15:16:46 10° N 15:23:07 84° E 15:29:34 10° S
Cosmos 1674 Rocket 3.5 15:19:18 10° N 15:23:39 83° W 15:24:30 57° S
Cosmos 2227 Rocket 3.4 15:27:08 10° NW 15:32:29 41° WSW 15:37:54 10° S
Cosmos 2082 3.9 15:31:30 10° N 15:35:59 54° NNE 15:35:59 54° NNE
NOSS 3-2 (C) 3.3 15:33:02 10° SW 15:39:00 67° WNW 15:40:09 52° N
In-Cosmos 22 Rocket 4.4 15:35:06 10° NNW 15:40:52 73° W 15:46:47 10° S
USA 238 DEB 4.0 15:34:29 10° SSW 15:39:50 45° SSE 15:39:50 45° SSE
USA 238 4.0 15:34:35 10° SSW 15:39:54 44° SSE 15:39:54 44° SSE
USA 267 3.1 15:50:42 71° NE 15:51:32 87° NW 15:58:10 10° SW
USA 59 Rocket 3.8 16:00:57 10° SSW 16:05:58 14° S 16:09:32 12° SSE
SL-16 R/B 3.9 16:30:19 10° SW 16:33:11 28° SW 16:33:11 28° SW
USA 59 Rocket 3.9 17:52:23 10° SSW 17:55:29 17° S 17:55:29 17° S
CZ-3 Stage 3 4.3 23:16:39 35° NE 23:16:57 35° NE 23:33:39 10° E
ATLAS 5 CENTAUR R/B 4.1 23:33:49 29° SSE 23:33:49 29° SSE 23:36:58 10° SSE
NOSS 3-4 (A) 4.1 23:51:33 53° E 23:51:33 53° E 23:56:34 10° NE
NOSS 3-4 (C) 4.1 23:51:37 53° E 23:51:37 53° E 23:56:41 10° NE
